Weather History for South Bend, IN

Change the Weather History Date:

Friday, January 25, 2013

  Actual Average Record
Temperature  
Mean Temperature 22 °F 24 °F  
Max Temperature 26 °F 31 °F 68 °F (1950)
Min Temperature 17 °F 17 °F -22 °F (1897)
Degree Days  
Heating Degree Days 43 41  
Month to date heating degree days 961 1017  
Since 1 July heating degree days 3161 3408  
Cooling Degree Days 0 0  
Month to date cooling degree days 0 0  
Year to date cooling degree days 0 0  
Moisture  
Dew Point 14 °F    
Average Humidity 71    
Maximum Humidity 88    
Minimum Humidity 54    
Precipitation  
Precipitation 0.04 in 0.06 in 1.00 in (1990)
Month to date precipitation 1.81 1.90  
Year to date precipitation 1.81 1.90  
Snow  
Snow 0.40 in - - ()
Month to date snowfall 7.4  
Snow Depth 6.00 in    
Sea Level Pressure  
Sea Level Pressure 30.14 in    
Wind  
Wind Speed 8 mph (SSW)    
Max Wind Speed 15 mph    
Max Gust Speed 20 mph    
Visibility 6 miles    
Events Snow    
T = Trace of Precipitation, MM = Missing Value Source: NWS Daily Summary

Daily Weather History Graph

Daily Weather History Graph

Search for Another Location

Airport:

Trip Planner

Search our weather history database for the weather conditions in past years. The results will help you decide how hot, cold, wet, or windy it might be!

Date:

Astronomy

Jan. 25, 2013 Rise Set
Actual Time 8:03 AM EST 5:52 PM EST
Civil Twilight 7:33 AM EST 6:22 PM EST
Nautical Twilight 6:59 AM EST 6:55 PM EST
Astronomical Twilight 6:27 AM EST 7:28 PM EST
Moon 4:49 PM EST 6:42 AM EST
Length of Visible Light 10h 48m
Length of Day
9h 48m
Waxing Gibbous, 98% of the Moon is Illuminated
Jan 25
Waxing Gibbous
Jan 26
Full
Feb 3
Last Quarter
Feb 10
New
Feb 17
First Quarter

Hourly Weather History & Observations

Time (EST) Temp. Windchill Dew Point Humidity Pressure Visibility Wind Dir Wind Speed Gust Speed Precip Events Conditions
12:54 AM 17.1 °F 5.8 °F 5.0 °F 59% 30.43 in 10.0 mi ESE 9.2 mph - N/A   Overcast
1:54 AM 18.0 °F 7.7 °F 6.1 °F 60% 30.42 in 10.0 mi ESE 8.1 mph - N/A   Overcast
2:54 AM 18.0 °F 7.7 °F 7.0 °F 62% 30.39 in 10.0 mi SE 8.1 mph - N/A   Overcast
3:54 AM 19.0 °F 7.5 °F 8.1 °F 62% 30.33 in 10.0 mi SE 10.4 mph - N/A   Overcast
4:54 AM 19.0 °F 7.5 °F 8.1 °F 62% 30.30 in 10.0 mi SE 10.4 mph - N/A   Overcast
5:54 AM 19.0 °F 7.5 °F 8.1 °F 62% 30.23 in 10.0 mi SE 10.4 mph - N/A   Overcast
6:54 AM 19.0 °F 7.5 °F 8.1 °F 62% 30.23 in 10.0 mi SE 10.4 mph - N/A   Overcast
7:34 AM 17.6 °F 7.3 °F 10.4 °F 73% 30.17 in 5.0 mi SE 8.1 mph - 0.00 in Snow Light Snow
7:54 AM 18.0 °F 7.7 °F 10.0 °F 71% 30.21 in 3.0 mi SSE 8.1 mph - 0.00 in Snow Light Snow
8:06 AM 17.6 °F 7.3 °F 10.4 °F 73% 30.16 in 2.5 mi SSE 8.1 mph - 0.00 in Snow Light Snow
8:54 AM 18.0 °F 8.7 °F 12.9 °F 81% 30.19 in 2.5 mi SSE 6.9 mph - 0.01 in Snow Light Snow
9:01 AM 17.6 °F 9.3 °F 12.2 °F 79% 30.15 in 1.5 mi SSE 5.8 mph - 0.01 in Snow Light Snow
9:27 AM 17.6 °F 7.3 °F 12.2 °F 79% 30.14 in 1.5 mi South 8.1 mph - 0.01 in Snow Light Snow
9:54 AM 18.0 °F 7.7 °F 12.9 °F 81% 30.17 in 1.5 mi South 8.1 mph - 0.01 in Snow Light Snow
10:54 AM 19.0 °F 9.0 °F 14.0 °F 81% 30.16 in 5.0 mi South 8.1 mph - 0.01 in Snow Light Snow
11:54 AM 21.0 °F 9.3 °F 14.0 °F 74% 30.14 in 1.0 mi SSW 11.5 mph - 0.00 in   Haze
12:04 PM 21.2 °F 10.9 °F 14.0 °F 74% 30.08 in 10.0 mi SSW 9.2 mph - 0.00 in Snow Light Snow
12:49 PM 21.2 °F 9.5 °F 14.0 °F 74% 30.04 in 10.0 mi SSW 11.5 mph - 0.00 in   Overcast
12:54 PM 21.9 °F 9.8 °F 14.0 °F 72% 30.08 in 10.0 mi SSW 12.7 mph - 0.00 in   Overcast
1:54 PM 21.9 °F 10.4 °F 15.1 °F 75% 30.05 in 10.0 mi WSW 11.5 mph - N/A   Overcast
2:54 PM 21.9 °F 11.7 °F 15.1 °F 75% 30.03 in 10.0 mi SW 9.2 mph - N/A   Overcast
3:54 PM 23.0 °F 13.1 °F 15.1 °F 72% 30.03 in 10.0 mi SW 9.2 mph - N/A   Overcast
4:54 PM 23.0 °F 13.1 °F 16.0 °F 74% 30.04 in 8.0 mi WSW 9.2 mph - N/A   Overcast
5:35 PM 23.0 °F 13.9 °F 17.6 °F 80% 30.00 in 2.5 mi SW 8.1 mph - 0.00 in Snow Light Snow
5:54 PM 23.0 °F 14.7 °F 18.0 °F 81% 30.05 in 2.0 mi WSW 6.9 mph - 0.00 in Snow Light Snow
6:19 PM 23.0 °F 13.1 °F 17.6 °F 80% 30.01 in 1.0 mi SW 9.2 mph - 0.00 in Snow Light Snow
6:26 PM 23.0 °F 13.1 °F 19.4 °F 86% 30.01 in 2.5 mi SW 9.2 mph - 0.00 in Snow Light Snow
6:54 PM 23.0 °F 13.1 °F 19.0 °F 85% 30.05 in 2.5 mi SW 9.2 mph - 0.00 in Snow Light Snow
7:01 PM 23.0 °F 13.9 °F 19.4 °F 86% 30.01 in 4.0 mi SW 8.1 mph - 0.00 in Snow Light Snow
7:54 PM 24.1 °F 18.2 °F 19.9 °F 84% 30.06 in 7.0 mi SW 4.6 mph - 0.00 in   Overcast
8:54 PM 24.1 °F - 19.0 °F 81% 30.06 in 7.0 mi Calm Calm - N/A   Overcast
9:54 PM 24.1 °F 19.7 °F 19.9 °F 84% 30.07 in 4.0 mi SW 3.5 mph - 0.00 in Snow Light Snow
10:34 PM 24.8 °F 20.5 °F 19.4 °F 80% 30.03 in 4.0 mi WSW 3.5 mph - 0.00 in Snow Light Snow
10:45 PM 24.8 °F 19.1 °F 19.4 °F 80% 30.03 in 5.0 mi SW 4.6 mph - 0.00 in Snow Light Snow
10:54 PM 24.1 °F 17.0 °F 19.9 °F 84% 30.07 in 6.0 mi WSW 5.8 mph - 0.00 in   Overcast
11:32 PM 24.8 °F 14.6 °F 19.4 °F 80% 30.05 in 6.0 mi WNW 10.4 mph - 0.00 in   Haze
11:54 PM 26.1 °F 15.6 °F 19.0 °F 75% 30.10 in 9.0 mi WNW 11.5 mph - 0.00 in   Overcast